Home   Weather   Dausa   Past weeks

Flag for India Past Weather in Dausa, Rajasthan, India — Yesterday and Last 2 Weeks

Now
66 °F

Passing clouds.


Feels Like: 66 °F
Forecast: 61 / 84 °F
Wind: 8 mph from East

Location: Jaipur / Sanganer

Current Time: Jan 25, 2017 at 5:12:03 am

Latest Report: Jan 25, 2017 at 4:30 am


Visibility: 2 mi

Pressure: 30.04 "Hg

Humidity: 68%

Dew Point: 55 °F

Location of DausaLocation

Past Weather in Dausa — Graph

°F

Dausa Temperature Yesterday

Maximum temperature yesterday: 82 °F (at 4:00 pm)
Minimum temperature yesterday: 59 °F (at 2:30 am)
Average temperature yesterday: 69 °F

High & Low Weather Summary for the Past Weeks

 TemperatureHumidityPressure
High82 °F (Jan 24, 4:00 pm)100% (Jan 17, 7:30 am)30.30 "Hg (Jan 17, 7:30 am)
Low39 °F (Jan 12, 5:30 am)15% (Jan 13, 5:00 pm)29.86 "Hg (Jan 19, 6:00 am)
Average59 °F48%30.10 "Hg
* Reported Jan 10 4:00 am — Jan 25 4:00 am, Dausa, Weather by CustomWeather, © 2017

Note: Actual official high and low records may vary slightly from our data, if they occured in-between our weather recording intervals... More about our weather records

Advertising

Dausa Weather History for the Previous 24 Hours

Scroll right to see more
 ConditionsComfort  
Time TempWeatherWind HumidityBarometerVisibility
4:00 am
Wed, Jan 25
66 °FPassing clouds.9 mph68%30.04 "Hg1 mi
3:30 am66 °FPassing clouds.8 mph68%30.07 "Hg1 mi
3:00 am66 °FPassing clouds.8 mph68%30.07 "Hg1 mi
2:30 am66 °FPassing clouds.9 mph73%30.07 "Hg1 mi
1:00 am68 °FPassing clouds.8 mph69%30.07 "Hg1 mi
12:30 am68 °FPassing clouds.9 mph69%30.09 "Hg1 mi
12:00 am68 °FPassing clouds.9 mph69%30.09 "Hg1 mi
11:30 pm
Tue, Jan 24
68 °FPassing clouds.9 mph69%30.09 "Hg1 mi
11:00 pm68 °FPassing clouds.9 mph73%30.09 "Hg1 mi
10:30 pm70 °FPassing clouds.8 mph64%30.09 "Hg1 mi
9:30 pm70 °FPassing clouds.8 mph60%30.09 "Hg1 mi
9:00 pm68 °FPassing clouds.6 mph60%30.07 "Hg2 mi
8:30 pm68 °FPassing clouds.3 mph64%30.07 "Hg2 mi
8:00 pm70 °FPassing clouds.5 mph60%30.07 "Hg2 mi
7:30 pm72 °FPassing clouds.5 mph57%30.07 "Hg2 mi
7:00 pm72 °FPassing clouds.6 mph57%30.07 "Hg2 mi
6:30 pm73 °FScattered clouds.5 mph53%30.07 "Hg2 mi
6:00 pm77 °FScattered clouds.5 mph47%30.07 "Hg2 mi
5:00 pm81 °FScattered clouds.5 mph39%30.04 "Hg2 mi
4:30 pm81 °FScattered clouds.7 mph39%30.04 "Hg2 mi
4:00 pm82 °FScattered clouds.7 mph37%30.04 "Hg2 mi
3:30 pm81 °FScattered clouds.6 mph39%30.04 "Hg2 mi
3:00 pm81 °FScattered clouds.7 mph39%30.04 "Hg2 mi
2:30 pm81 °FPartly sunny.5 mph39%30.07 "Hg2 mi
2:00 pm81 °FHaze.7 mph39%30.07 "Hg2 mi
1:30 pm79 °FHaze.7 mph42%30.09 "Hg2 mi
1:00 pm79 °FHaze.8 mph39%30.12 "Hg2 mi
12:30 pm79 °FHaze.7 mph39%30.12 "Hg2 mi
12:00 pm75 °FHaze.7 mph44%30.15 "Hg2 mi
10:30 am73 °FClear.8 mph47%30.18 "Hg1 mi
9:30 am68 °FClear.8 mph56%30.15 "Hg1 mi
9:00 am66 °FClear.8 mph60%30.12 "Hg1 mi
8:30 am64 °FClear.8 mph68%30.12 "Hg1 mi
7:30 am61 °FPassing clouds.6 mph77%30.12 "Hg1 mi
7:00 am61 °FFog.7 mph77%30.09 "Hg1 mi
6:30 am61 °FFog.7 mph77%30.09 "Hg1 mi
6:00 am61 °FFog.8 mph77%30.07 "Hg1 mi
5:30 am59 °FFog.No wind82%30.07 "Hg1 mi
5:00 am61 °FFog.No wind77%30.07 "Hg1 mi
Weather by CustomWeather, © 2017

See weather overviewHow to use our weather pages